TimeCST,TemperatureF,Dew PointF,Humidity,Sea Level PressureIn,VisibilityMPH,Wind Direction,Wind SpeedMPH,Gust SpeedMPH,PrecipitationIn,Events,Conditions,WindDirDegrees,DateUTC
12:58 AM,66.2,66.2,100,30.05,5.0,Calm,Calm,-,N/A,,Partly Cloudy,0,2014-02-09 06:58:00
1:40 AM,64.4,64.4,100,30.03,7.0,Calm,Calm,-,N/A,,Partly Cloudy,0,2014-02-09 07:40:00
2:41 AM,64.4,64.4,100,30.04,7.0,Calm,Calm,-,N/A,,Partly Cloudy,0,2014-02-09 08:41:00
3:40 AM,64.4,64.4,100,30.01,7.0,Calm,Calm,-,N/A,,Partly Cloudy,0,2014-02-09 09:40:00
5:02 AM,62.6,62.6,100,30.00,7.0,Calm,Calm,-,N/A,,Partly Cloudy,0,2014-02-09 11:02:00
5:44 AM,64.4,64.4,100,29.99,7.0,Calm,Calm,-,N/A,,Partly Cloudy,0,2014-02-09 11:44:00
6:44 AM,62.6,62.6,100,30.02,7.0,Calm,Calm,-,N/A,,Clear,0,2014-02-09 12:44:00
7:40 AM,69.8,68.0,94,30.04,8.0,Calm,Calm,-,N/A,,Partly Cloudy,0,2014-02-09 13:40:00
8:40 AM,75.2,71.6,89,30.08,7.0,East,5.8,-,N/A,,Partly Cloudy,80,2014-02-09 14:40:00
9:40 AM,77.0,69.8,78,30.07,8.0,East,8.1,-,N/A,,Mostly Cloudy,80,2014-02-09 15:40:00
10:40 AM,77.0,69.8,78,30.07,8.0,NE,9.2,-,N/A,,Scattered Clouds,40,2014-02-09 16:40:00
11:40 AM,77.0,69.8,78,30.04,8.0,ENE,8.1,-,N/A,,Partly Cloudy,70,2014-02-09 17:40:00
12:40 PM,78.8,69.8,74,30.03,8.0,ENE,13.8,-,N/A,,Partly Cloudy,70,2014-02-09 18:40:00
1:40 PM,78.8,69.8,74,30.01,8.0,NE,10.4,-,N/A,,Partly Cloudy,50,2014-02-09 19:40:00
2:47 PM,78.8,69.8,74,30.02,8.0,ENE,10.4,-,N/A,,Partly Cloudy,70,2014-02-09 20:47:00
3:46 PM,77.0,69.8,78,29.99,8.0,ENE,9.2,-,N/A,,Partly Cloudy,70,2014-02-09 21:46:00
5:00 PM,75.2,68.0,78,30.00,8.0,ENE,8.1,-,N/A,,Clear,70,2014-02-09 23:00:00
5:47 PM,71.6,68.0,88,29.99,7.0,ENE,4.6,-,N/A,,Clear,70,2014-02-09 23:47:00
6:49 PM,69.8,68.0,94,30.02,7.0,Calm,Calm,-,N/A,,Clear,0,2014-02-10 00:49:00
7:50 PM,68.0,66.2,94,30.03,7.0,Calm,Calm,-,N/A,,Clear,0,2014-02-10 01:50:00
8:50 PM,68.0,66.2,94,30.07,7.0,Calm,Calm,-,N/A,,Clear,0,2014-02-10 02:50:00
9:47 PM,64.4,64.4,100,30.04,7.0,Calm,Calm,-,N/A,,Clear,0,2014-02-10 03:47:00
10:43 PM,62.6,62.6,100,30.04,7.0,Calm,Calm,-,N/A,,Partly Cloudy,0,2014-02-10 04:43:00